TimeCDT,TemperatureF,Dew PointF,Humidity,Sea Level PressureIn,VisibilityMPH,Wind Direction,Wind SpeedMPH,Gust SpeedMPH,PrecipitationIn,Events,Conditions,WindDirDegrees,DateUTC
12:25 AM,77.0,75.2,94,29.82,10.0,South,11.5,-,N/A,,Scattered Clouds,170,2013-06-01 05:25:00
12:43 AM,77.0,75.2,94,29.82,10.0,South,13.8,-,N/A,,Mostly Cloudy,170,2013-06-01 05:43:00
12:58 AM,76.5,75.6,97,29.80,10.0,South,11.5,-,N/A,,Mostly Cloudy,170,2013-06-01 05:58:00
1:58 AM,76.3,75.4,97,29.81,10.0,SSE,9.2,-,N/A,,Mostly Cloudy,160,2013-06-01 06:58:00
2:07 AM,77.0,75.2,94,29.82,10.0,South,11.5,-,N/A,,Mostly Cloudy,170,2013-06-01 07:07:00
2:34 AM,77.0,75.2,94,29.82,10.0,South,9.2,-,N/A,,Scattered Clouds,170,2013-06-01 07:34:00
2:52 AM,77.0,75.2,94,29.82,10.0,South,9.2,-,N/A,,Mostly Cloudy,170,2013-06-01 07:52:00
2:58 AM,76.1,75.2,97,29.80,10.0,South,12.7,-,N/A,,Mostly Cloudy,170,2013-06-01 07:58:00
3:07 AM,77.0,75.2,94,29.81,10.0,South,11.5,-,N/A,,Mostly Cloudy,170,2013-06-01 08:07:00
3:16 AM,77.0,75.2,94,29.81,10.0,South,10.4,-,N/A,,Mostly Cloudy,170,2013-06-01 08:16:00
3:25 AM,77.0,75.2,94,29.82,10.0,South,9.2,-,N/A,,Mostly Cloudy,170,2013-06-01 08:25:00
3:34 AM,77.0,75.2,94,29.82,10.0,South,9.2,-,N/A,,Mostly Cloudy,170,2013-06-01 08:34:00
3:52 AM,77.0,75.2,94,29.81,10.0,South,8.1,-,N/A,,Scattered Clouds,170,2013-06-01 08:52:00
3:58 AM,76.1,75.2,97,29.78,10.0,South,8.1,-,N/A,,Mostly Cloudy,170,2013-06-01 08:58:00
4:16 AM,77.0,75.2,94,29.81,10.0,South,8.1,-,N/A,,Mostly Cloudy,170,2013-06-01 09:16:00
4:34 AM,77.0,75.2,94,29.81,10.0,South,9.2,-,N/A,,Mostly Cloudy,180,2013-06-01 09:34:00
4:43 AM,77.0,75.2,94,29.82,10.0,South,11.5,-,N/A,,Mostly Cloudy,180,2013-06-01 09:43:00
4:58 AM,76.6,74.5,93,29.80,10.0,South,11.5,-,N/A,,Mostly Cloudy,170,2013-06-01 09:58:00
5:16 AM,77.0,75.2,94,29.82,10.0,South,9.2,-,N/A,,Mostly Cloudy,170,2013-06-01 10:16:00
5:34 AM,77.0,75.2,94,29.82,10.0,South,8.1,-,N/A,,Mostly Cloudy,170,2013-06-01 10:34:00
5:43 AM,77.0,75.2,94,29.82,10.0,South,9.2,-,N/A,,Mostly Cloudy,170,2013-06-01 10:43:00
5:58 AM,76.8,74.7,93,29.80,10.0,South,9.2,-,N/A,,Mostly Cloudy,180,2013-06-01 10:58:00
6:16 AM,77.0,75.2,94,29.83,10.0,SSE,10.4,-,N/A,,Mostly Cloudy,160,2013-06-01 11:16:00
6:25 AM,77.0,75.2,94,29.83,10.0,South,9.2,-,N/A,,Mostly Cloudy,170,2013-06-01 11:25:00
6:58 AM,76.6,74.8,94,29.81,10.0,South,10.4,-,N/A,,Mostly Cloudy,170,2013-06-01 11:58:00
7:43 AM,77.0,75.2,94,29.85,10.0,South,8.1,-,N/A,,Mostly Cloudy,170,2013-06-01 12:43:00
7:58 AM,77.2,75.4,94,29.83,10.0,South,9.2,-,N/A,,Mostly Cloudy,180,2013-06-01 12:58:00
8:52 AM,80.6,75.2,84,29.86,10.0,South,13.8,-,N/A,,Mostly Cloudy,180,2013-06-01 13:52:00
8:58 AM,80.6,75.2,84,29.84,10.0,South,15.0,-,N/A,,Scattered Clouds,180,2013-06-01 13:58:00
9:07 AM,80.6,73.4,79,29.86,10.0,South,17.3,23.0,N/A,,Mostly Cloudy,190,2013-06-01 14:07:00
9:16 AM,80.6,73.4,79,29.85,10.0,South,19.6,24.2,N/A,,Scattered Clouds,180,2013-06-01 14:16:00
9:25 AM,80.6,75.2,84,29.86,10.0,SSW,18.4,24.2,N/A,,Mostly Cloudy,200,2013-06-01 14:25:00
9:34 AM,80.6,73.4,79,29.86,10.0,South,18.4,-,N/A,,Mostly Cloudy,170,2013-06-01 14:34:00
9:44 AM,80.6,73.4,79,29.86,10.0,South,17.3,-,N/A,,Scattered Clouds,190,2013-06-01 14:44:00
9:58 AM,81.1,74.1,79,29.84,10.0,South,12.7,25.3,N/A,,Scattered Clouds,190,2013-06-01 14:58:00
10:34 AM,82.4,75.2,79,29.86,10.0,South,13.8,20.7,N/A,,Mostly Cloudy,180,2013-06-01 15:34:00
10:43 AM,84.2,75.2,74,29.86,10.0,South,15.0,-,N/A,,Scattered Clouds,170,2013-06-01 15:43:00
10:52 AM,84.2,75.2,74,29.86,10.0,South,16.1,-,N/A,,Mostly Cloudy,190,2013-06-01 15:52:00
10:58 AM,83.5,74.5,74,29.84,10.0,South,13.8,21.9,N/A,,Scattered Clouds,190,2013-06-01 15:58:00
11:58 AM,86.4,75.0,69,29.83,10.0,SSW,15.0,23.0,N/A,,Partly Cloudy,200,2013-06-01 16:58:00
12:58 PM,88.7,75.2,64,29.83,10.0,South,11.5,20.7,N/A,,Partly Cloudy,190,2013-06-01 17:58:00
1:58 PM,90.5,75.6,61,29.81,10.0,SSW,12.7,18.4,N/A,,Scattered Clouds,210,2013-06-01 18:58:00
2:58 PM,91.8,73.9,56,29.81,10.0,SSW,9.2,-,N/A,,Partly Cloudy,200,2013-06-01 19:58:00
3:58 PM,92.5,73.9,55,29.81,10.0,SSE,9.2,-,N/A,,Partly Cloudy,160,2013-06-01 20:58:00
4:58 PM,94.1,74.1,52,29.78,10.0,SE,6.9,-,N/A,,Scattered Clouds,140,2013-06-01 21:58:00
5:58 PM,93.7,71.8,49,29.78,10.0,ESE,9.2,-,N/A,,Scattered Clouds,110,2013-06-01 22:58:00
6:58 PM,91.4,73.8,56,29.78,10.0,ESE,9.2,-,N/A,,Clear,120,2013-06-01 23:58:00
7:58 PM,88.7,74.7,63,29.80,10.0,ESE,6.9,-,N/A,,Partly Cloudy,110,2013-06-02 00:58:00
8:58 PM,84.2,74.7,73,29.82,10.0,SE,10.4,-,N/A,,Clear,140,2013-06-02 01:58:00
9:58 PM,81.9,74.8,79,29.87,10.0,SSE,11.5,-,N/A,,Clear,150,2013-06-02 02:58:00
10:58 PM,79.5,74.8,86,29.89,10.0,SE,8.1,-,N/A,,Clear,140,2013-06-02 03:58:00
11:43 PM,78.8,75.2,89,29.91,10.0,SSE,8.1,-,N/A,,Mostly Cloudy,150,2013-06-02 04:43:00
11:58 PM,78.1,75.9,93,29.90,10.0,SSE,6.9,-,N/A,,Mostly Cloudy,160,2013-06-02 04:58:00